Time,TemperatureF,DewpointF,PressureIn,WindDirection,WindDirectionDegrees,WindSpeedMPH,WindSpeedGustMPH,Humidity,HourlyPrecipIn,Conditions,Clouds,dailyrainin,SoftwareType,DateUTC
2013-04-22 00:01:00,33.0,29.0,-100.00,East,97,1.0,2.0,85,-99.99,,,-99.99,,2013-04-22 07:01:00,
2013-04-22 00:11:00,33.0,29.0,-100.00,East,97,1.0,2.0,85,-99.99,,,-99.99,,2013-04-22 07:11:00,
2013-04-22 00:20:00,32.0,32.0,-100.00,SE,130,1.0,2.0,100,-99.99,,,-99.99,,2013-04-22 07:20:00,
2013-04-22 01:01:00,32.0,32.0,-100.00,SE,130,1.0,2.0,100,-99.99,,,-99.99,,2013-04-22 08:01:00,
2013-04-22 01:10:00,30.0,28.0,-100.00,SE,134,1.0,2.0,92,-99.99,,,-99.99,,2013-04-22 08:10:00,
2013-04-22 01:11:00,32.0,32.0,-100.00,SE,130,1.0,2.0,100,-99.99,,,-99.99,,2013-04-22 08:11:00,
2013-04-22 02:01:00,30.0,28.0,-100.00,SE,134,1.0,2.0,92,-99.99,,,-99.99,,2013-04-22 09:01:00,
2013-04-22 03:03:00,29.0,28.0,-100.00,SE,143,2.0,3.0,95,-99.99,,,-99.99,,2013-04-22 10:03:00,
2013-04-22 03:10:00,28.0,27.0,-100.00,ESE,116,1.0,2.0,95,-99.99,,,-99.99,,2013-04-22 10:10:00,
2013-04-22 03:12:00,29.0,28.0,-100.00,SE,143,2.0,3.0,95,-99.99,,,-99.99,,2013-04-22 10:12:00,
2013-04-22 04:02:00,28.0,27.0,-100.00,ESE,116,1.0,2.0,95,-99.99,,,-99.99,,2013-04-22 11:02:00,
2013-04-22 05:01:00,27.0,26.0,-100.00,SE,137,2.0,3.0,95,-99.99,,,-99.99,,2013-04-22 12:01:00,
2013-04-22 05:10:00,27.0,26.0,-100.00,SE,140,2.0,5.0,95,-99.99,,,-99.99,,2013-04-22 12:10:00,
2013-04-22 05:12:00,27.0,26.0,-100.00,SE,137,2.0,3.0,95,-99.99,,,-99.99,,2013-04-22 12:12:00,
2013-04-22 06:01:00,27.0,26.0,-100.00,SE,140,2.0,5.0,95,-99.99,,,-99.99,,2013-04-22 13:01:00,
2013-04-22 07:02:00,26.0,25.0,-100.00,SE,130,2.0,3.0,95,-99.99,,,-99.99,,2013-04-22 14:02:00,
2013-04-22 07:11:00,26.0,25.0,-100.00,SE,130,2.0,3.0,95,-99.99,,,-99.99,,2013-04-22 14:11:00,
2013-04-22 08:01:00,26.0,26.0,-100.00,SE,131,1.0,3.0,100,-99.99,,,-99.99,,2013-04-22 15:01:00,
2013-04-22 09:02:00,28.0,28.0,-100.00,SSW,199,1.0,1.0,100,-99.99,,,-99.99,,2013-04-22 16:02:00,
2013-04-22 09:12:00,28.0,28.0,-100.00,SSW,199,1.0,1.0,100,-99.99,,,-99.99,,2013-04-22 16:12:00,
2013-04-22 10:02:00,34.0,30.0,-100.00,SW,226,1.0,3.0,85,-99.99,,,-99.99,,2013-04-22 17:02:00,
2013-04-22 11:01:00,45.0,23.0,-100.00,West,275,3.0,6.0,41,-99.99,,,-99.99,,2013-04-22 18:01:00,
2013-04-22 11:10:00,53.0,17.0,-100.00,NW,319,1.0,5.0,23,-99.99,,,-99.99,,2013-04-22 18:10:00,
2013-04-22 11:12:00,45.0,23.0,-100.00,West,275,3.0,6.0,41,-99.99,,,-99.99,,2013-04-22 18:12:00,
2013-04-22 12:00:00,51.0,11.0,-100.00,North,349,3.0,6.0,19,-99.99,,,-99.99,,2013-04-22 19:00:00,
2013-04-22 12:01:00,53.0,17.0,-100.00,NW,319,1.0,5.0,23,-99.99,,,-99.99,,2013-04-22 19:01:00,
2013-04-22 14:02:00,55.0,10.0,-100.00,North,8,2.0,5.0,16,-99.99,,,-99.99,,2013-04-22 21:02:00,
2013-04-22 15:02:00,56.0,12.0,-100.00,NE,45,2.0,5.0,17,-99.99,,,-99.99,,2013-04-22 22:02:00,
2013-04-22 15:12:00,56.0,12.0,-100.00,NE,45,2.0,5.0,17,-99.99,,,-99.99,,2013-04-22 22:12:00,
2013-04-22 16:02:00,57.0,11.0,-100.00,ENE,59,2.0,6.0,15,-99.99,,,-99.99,,2013-04-22 23:02:00,
2013-04-22 17:10:00,56.0,15.0,-100.00,ESE,116,2.0,5.0,19,-99.99,,,-99.99,,2013-04-23 00:10:00,
2013-04-22 18:01:00,56.0,15.0,-100.00,ESE,116,2.0,5.0,19,-99.99,,,-99.99,,2013-04-23 01:01:00,
2013-04-22 19:01:00,54.0,20.0,-100.00,East,80,2.0,6.0,26,-99.99,,,-99.99,,2013-04-23 02:01:00,
2013-04-22 19:12:00,54.0,20.0,-100.00,East,80,2.0,6.0,26,-99.99,,,-99.99,,2013-04-23 02:12:00,
2013-04-22 20:10:00,44.0,30.0,-100.00,ESE,123,1.0,2.0,57,-99.99,,,-99.99,,2013-04-23 03:10:00,
2013-04-22 21:00:00,41.0,29.0,-100.00,ESE,109,0.0,1.0,62,-99.99,,,-99.99,,2013-04-23 04:00:00,
2013-04-22 21:03:00,44.0,30.0,-100.00,ESE,123,1.0,2.0,57,-99.99,,,-99.99,,2013-04-23 04:03:00,
2013-04-22 23:00:00,36.0,28.0,-100.00,East,89,1.0,2.0,72,-99.99,,,-99.99,,2013-04-23 06:00:00,
2013-04-22 23:01:00,39.0,28.0,-100.00,ESE,107,1.0,2.0,64,-99.99,,,-99.99,,2013-04-23 06:01:00,